Regional Weather Roundup
Issued by NWS

Home | Current Version | Previous Version | Text Only | Print | Product List | Glossary Off
Versions: 1 2 3 4 5 6 7 8 9 10 11 12 13 14 15 16 17 18 19 20 21 22 23 24 25 26 27 28 29 30 31 32 33 34 35 36 37 38 39 40 41 42 43 44 45 46 47 48 49 50

797
ASUS43 KBIS 240110
RWRND

NORTH DAKOTA REGIONAL WEATHER ROUNDUP
NATIONAL WEATHER SERVICE BISMARCK ND
800 PM CDT TUE AUG 23 2016

NOTE: "FAIR" INDICATES FEW OR NO CLOUDS BELOW 12,000 FEET WITH NO
SIGNIFICANT WEATHER AND/OR OBSTRUCTIONS TO VISIBILITY.


NDZ001>003-009>011-017-240200-
NORTHWEST NORTH DAKOTA

CITY           SKY/WX    TMP DP  RH WIND       PRES   REMARKS
WILLISTON      CLEAR     73  42  32 W22G35    29.87R
MINOT          CLEAR     75  44  33 W10       29.81R
MINOT AFB      CLEAR     74  44  33 W8        29.80R
$$

NDZ018>021-031>035-040>046-240200-
SOUTHWEST NORTH DAKOTA

CITY           SKY/WX    TMP DP  RH WIND       PRES   REMARKS
BISMARCK       CLEAR     74  43  32 NW6       29.85R
DICKINSON      PTCLDY    72  33  24 W14       29.91R
GARRISON         N/A     74  44  34 W10       29.84R
HETTINGER ARPT PTCLDY    65  39  38 W7        29.95R
$$

NDZ004>008-012>016-024-026-027-054-240200-
NORTHEAST NORTH DAKOTA

CITY           SKY/WX    TMP DP  RH WIND       PRES   REMARKS
GRAND FORKS    MOCLDY    79  70  74 W13       29.68R
GRND FRKS AFB  PTCLDY    77  67  70 W9        29.70R
DEVILS LAKE    CLEAR     72  51  47 W13       29.77R
$$

NDZ022-023-025-028>030-036>039-047>053-240200-
SOUTHEAST NORTH DAKOTA

CITY           SKY/WX    TMP DP  RH WIND       PRES   REMARKS
FARGO          CLEAR     81  63  54 S17G25    29.73R
JAMESTOWN      CLOUDY    73  58  59 NW8       29.79R
$$





USA.gov is the U.S. government's official web portal to all federal, state and local government web resources and services.